owner,sensor,date,latitude,longitude,vertical_datum,direction_of_sea_water_velocity,sea_water_speed,upward_sea_water_velocity,qcFlag 
TABS,ioos:station:TABS:A:1,1997-01-01T00:00:00Z,29.5325,-93.8116,2.0,328.3289138,32.91137341,-99999.0,'11111222,11111222,99999999' 
TABS,ioos:station:TABS:A:1,1997-01-01T00:30:00Z,29.5325,-93.8116,2.0,323.971622,32.42149441,-99999.0,'11111222,11111222,99999999' 
TABS,ioos:station:TABS:A:1,1997-01-01T01:00:00Z,29.5325,-93.8116,2.0,317.6251044,32.27085527,-99999.0,'11111222,11111222,99999999' 
TABS,ioos:station:TABS:A:1,1997-01-01T01:30:00Z,29.5325,-93.8116,2.0,320.9316311,26.48149731,-99999.0,'11111222,11111222,99999999' 
TABS,ioos:station:TABS:A:1,1997-01-01T02:00:00Z,29.5325,-93.8116,2.0,321.9540083,26.10750275,-99999.0,'11111222,11111222,99999999' 
TABS,ioos:station:TABS:A:1,1997-01-01T02:30:00Z,29.5325,-93.8116,2.0,318.8143816,15.83891726,-99999.0,'11111222,11111222,99999999' 
TABS,ioos:station:TABS:A:1,1997-01-01T03:00:00Z,29.5325,-93.8116,2.0,307.6933294,16.56770956,-99999.0,'11111222,11111222,99999999' 
TABS,ioos:station:TABS:A:1,1997-01-01T03:30:00Z,29.5325,-93.8116,2.0,262.962232,24.32323992,-99999.0,'11111222,11111222,99999999' 
TABS,ioos:station:TABS:A:1,1997-01-01T04:00:00Z,29.5325,-93.8116,2.0,270.5445228,31.59142447,-99999.0,'11111222,11111222,99999999' 
TABS,ioos:station:TABS:A:1,1997-01-01T04:30:00Z,29.5325,-93.8116,2.0,268.7591599,27.71649509,-99999.0,'11111222,11111222,99999999' 
TABS,ioos:station:TABS:A:1,1997-01-01T05:00:00Z,29.5325,-93.8116,2.0,275.9988784,22.77469868,-99999.0,'11111222,11111222,99999999' 
TABS,ioos:station:TABS:A:1,1997-01-01T05:30:00Z,29.5325,-93.8116,2.0,268.5578789,23.84754914,-99999.0,'11111222,11111222,99999999' 
TABS,ioos:station:TABS:A:1,1997-01-01T06:00:00Z,29.5325,-93.8116,2.0,281.6308359,20.68469241,-99999.0,'11111222,11111222,99999999' 
TABS,ioos:station:TABS:A:1,1997-01-01T06:30:00Z,29.5325,-93.8116,2.0,284.7406293,17.56818147,-99999.0,'11111222,11111222,99999999' 
TABS,ioos:station:TABS:A:1,1997-01-01T07:00:00Z,29.5325,-93.8116,2.0,295.6351159,16.52672079,-99999.0,'11111222,11111222,99999999' 
TABS,ioos:station:TABS:A:1,1997-01-01T07:30:00Z,29.5325,-93.8116,2.0,303.166902,18.51666547,-99999.0,'11111222,11111222,99999999' 
TABS,ioos:station:TABS:A:1,1997-01-01T08:00:00Z,29.5325,-93.8116,2.0,268.1974789,19.07943657,-99999.0,'11111222,11111222,99999999' 
TABS,ioos:station:TABS:A:1,1997-01-01T08:30:00Z,29.5325,-93.8116,2.0,270.0004209,16.09,-99999.0,'11111222,11111222,99999999' 
TABS,ioos:station:TABS:A:1,1997-01-01T09:00:00Z,29.5325,-93.8116,2.0,286.2575104,14.89560002,-99999.0,'11111222,11111222,99999999' 
TABS,ioos:station:TABS:A:1,1997-01-01T09:30:00Z,29.5325,-93.8116,2.0,292.3842953,16.43860091,-99999.0,'11111222,11111222,99999999' 
TABS,ioos:station:TABS:A:1,1997-01-01T10:00:00Z,29.5325,-93.8116,2.0,291.593264,13.77682837,-99999.0,'11111222,11111222,99999999' 
TABS,ioos:station:TABS:A:1,1997-01-01T10:30:00Z,29.5325,-93.8116,2.0,282.6716243,12.21756113,-99999.0,'11111222,11111222,99999999' 
TABS,ioos:station:TABS:A:1,1997-01-01T11:00:00Z,29.5325,-93.8116,2.0,272.8819979,11.93509112,-99999.0,'11111222,11111222,99999999' 
TABS,ioos:station:TABS:A:1,1997-01-01T11:30:00Z,29.5325,-93.8116,2.0,266.7133085,15.52553059,-99999.0,'11111222,11111222,99999999' 
TABS,ioos:station:TABS:A:1,1997-01-01T12:00:00Z,29.5325,-93.8116,2.0,284.8462801,15.1042014,-99999.0,'11111222,11111222,99999999' 
TABS,ioos:station:TABS:A:1,1997-01-01T12:30:00Z,29.5325,-93.8116,2.0,266.2545466,18.21890502,-99999.0,'11111222,11111222,99999999' 
TABS,ioos:station:TABS:A:1,1997-01-01T13:00:00Z,29.5325,-93.8116,2.0,260.839203,18.71872859,-99999.0,'11111222,11111222,99999999' 
TABS,ioos:station:TABS:A:1,1997-01-01T13:30:00Z,29.5325,-93.8116,2.0,263.7451543,19.1841862,-99999.0,'11111222,11111222,99999999' 
TABS,ioos:station:TABS:A:1,1997-01-01T14:00:00Z,29.5325,-93.8116,2.0,239.9370498,26.17049102,-99999.0,'11111222,11111222,99999999' 
TABS,ioos:station:TABS:A:1,1997-01-01T14:30:00Z,29.5325,-93.8116,2.0,247.5383137,24.18470798,-99999.0,'11111222,11111222,99999999' 
TABS,ioos:station:TABS:A:1,1997-01-01T15:00:00Z,29.5325,-93.8116,2.0,265.7314291,31.97868822,-99999.0,'11111222,11111222,99999999' 
TABS,ioos:station:TABS:A:1,1997-01-01T15:30:00Z,29.5325,-93.8116,2.0,268.3384896,30.70290214,-99999.0,'11111222,11111222,99999999' 
TABS,ioos:station:TABS:A:1,1997-01-01T16:00:00Z,29.5325,-93.8116,2.0,271.6615104,30.70290214,-99999.0,'11111222,11111222,99999999' 
TABS,ioos:station:TABS:A:1,1997-01-01T16:30:00Z,29.5325,-93.8116,2.0,275.8364591,26.35660828,-99999.0,'11111222,11111222,99999999' 
TABS,ioos:station:TABS:A:1,1997-01-01T17:00:00Z,29.5325,-93.8116,2.0,287.7992903,25.35354216,-99999.0,'11111222,11111222,99999999' 
TABS,ioos:station:TABS:A:1,1997-01-01T17:30:00Z,29.5325,-93.8116,2.0,305.3528218,22.65794563,-99999.0,'11111222,11111222,99999999' 
TABS,ioos:station:TABS:A:1,1997-01-01T18:00:00Z,29.5325,-93.8116,2.0,315.695055,17.49510789,-99999.0,'11111222,11111222,99999999' 
TABS,ioos:station:TABS:A:1,1997-01-01T18:30:00Z,29.5325,-93.8116,2.0,319.5498843,23.89063415,-99999.0,'11111222,11111222,99999999' 
TABS,ioos:station:TABS:A:1,1997-01-01T19:00:00Z,29.5325,-93.8116,2.0,318.7453482,25.76542257,-99999.0,'11111222,11111222,99999999' 
TABS,ioos:station:TABS:A:1,1997-01-01T19:30:00Z,29.5325,-93.8116,2.0,321.8783617,24.62187848,-99999.0,'11111222,11111222,99999999' 
TABS,ioos:station:TABS:A:1,1997-01-01T20:00:00Z,29.5325,-93.8116,2.0,328.8345121,28.21169261,-99999.0,'11111222,11111222,99999999' 
TABS,ioos:station:TABS:A:1,1997-01-01T20:30:00Z,29.5325,-93.8116,2.0,332.3810367,28.9261992,-99999.0,'11111222,11111222,99999999' 
TABS,ioos:station:TABS:A:1,1997-01-01T21:00:00Z,29.5325,-93.8116,2.0,335.4587804,30.14310535,-99999.0,'11111222,11111222,99999999' 
TABS,ioos:station:TABS:A:1,1997-01-01T21:30:00Z,29.5325,-93.8116,2.0,335.5563128,36.007477,-99999.0,'11111222,11111222,99999999' 
TABS,ioos:station:TABS:A:1,1997-01-01T22:00:00Z,29.5325,-93.8116,2.0,338.8317118,35.47368743,-99999.0,'11111222,11111222,99999999' 
TABS,ioos:station:TABS:A:1,1997-01-01T22:30:00Z,29.5325,-93.8116,2.0,335.3115062,44.93775473,-99999.0,'11111222,11111222,99999999' 
TABS,ioos:station:TABS:A:1,1997-01-01T23:00:00Z,29.5325,-93.8116,2.0,330.8226259,55.62858348,-99999.0,'11111222,11111222,99999999' 
TABS,ioos:station:TABS:A:1,1997-01-01T23:30:00Z,29.5325,-93.8116,2.0,336.6509399,59.39404431,-99999.0,'11111222,11111222,99999999' 
TABS,ioos:station:TABS:A:1,1997-01-02T00:00:00Z,29.5325,-93.8116,2.0,339.9140075,55.52735722,-99999.0,'11111222,11111222,99999999' 
TABS,ioos:station:TABS:A:1,1997-01-02T00:30:00Z,29.5325,-93.8116,2.0,341.3570841,52.20954894,-99999.0,'11111222,11111222,99999999' 
TABS,ioos:station:TABS:A:1,1997-01-02T01:00:00Z,29.5325,-93.8116,2.0,338.2639272,50.68371829,-99999.0,'11111222,11111222,99999999' 
TABS,ioos:station:TABS:A:1,1997-01-02T01:30:00Z,29.5325,-93.8116,2.0,339.3250351,50.64147312,-99999.0,'11111222,11111222,99999999' 
TABS,ioos:station:TABS:A:1,1997-01-02T02:00:00Z,29.5325,-93.8116,2.0,342.1968295,51.6431312,-99999.0,'11111222,11111222,99999999' 
TABS,ioos:station:TABS:A:1,1997-01-02T02:30:00Z,29.5325,-93.8116,2.0,342.5854212,47.78010151,-99999.0,'11111222,11111222,99999999' 
TABS,ioos:station:TABS:A:1,1997-01-02T03:00:00Z,29.5325,-93.8116,2.0,344.2696558,43.96667829,-99999.0,'11111222,11111222,99999999' 
TABS,ioos:station:TABS:A:1,1997-01-02T03:30:00Z,29.5325,-93.8116,2.0,339.053403,40.8389471,-99999.0,'11111222,11111222,99999999' 
TABS,ioos:station:TABS:A:1,1997-01-02T04:00:00Z,29.5325,-93.8116,2.0,340.6875235,36.94922597,-99999.0,'11111222,11111222,99999999' 
TABS,ioos:station:TABS:A:1,1997-01-02T04:30:00Z,29.5325,-93.8116,2.0,337.6217531,38.34803254,-99999.0,'11111222,11111222,99999999' 
TABS,ioos:station:TABS:A:1,1997-01-02T05:00:00Z,29.5325,-93.8116,2.0,334.7742203,34.25697155,-99999.0,'11111222,11111222,99999999' 
TABS,ioos:station:TABS:A:1,1997-01-02T05:30:00Z,29.5325,-93.8116,2.0,334.4697933,29.72218868,-99999.0,'11111222,11111222,99999999' 
TABS,ioos:station:TABS:A:1,1997-01-02T06:00:00Z,29.5325,-93.8116,2.0,334.9833755,24.66388858,-99999.0,'11111222,11111222,99999999' 
TABS,ioos:station:TABS:A:1,1997-01-02T06:30:00Z,29.5325,-93.8116,2.0,329.0318141,20.85251304,-99999.0,'11111222,11111222,99999999' 
TABS,ioos:station:TABS:A:1,1997-01-02T07:00:00Z,29.5325,-93.8116,2.0,321.5570538,23.96503495,-99999.0,'11111222,11111222,99999999' 
TABS,ioos:station:TABS:A:1,1997-01-02T07:30:00Z,29.5325,-93.8116,2.0,319.3990108,27.47424248,-99999.0,'11111222,11111222,99999999' 
TABS,ioos:station:TABS:A:1,1997-01-02T08:00:00Z,29.5325,-93.8116,2.0,322.5477112,28.90949498,-99999.0,'11111222,11111222,99999999' 
TABS,ioos:station:TABS:A:1,1997-01-02T08:30:00Z,29.5325,-93.8116,2.0,316.8722204,32.25421058,-99999.0,'11111222,11111222,99999999' 
TABS,ioos:station:TABS:A:1,1997-01-02T09:00:00Z,29.5325,-93.8116,2.0,322.350382,39.51966219,-99999.0,'11111222,11111222,99999999' 
TABS,ioos:station:TABS:A:1,1997-01-02T09:30:00Z,29.5325,-93.8116,2.0,328.514704,38.79115879,-99999.0,'11111222,11111222,99999999' 
TABS,ioos:station:TABS:A:1,1997-01-02T10:00:00Z,29.5325,-93.8116,2.0,328.3289138,32.91137341,-99999.0,'11111222,11111222,99999999' 
TABS,ioos:station:TABS:A:1,1997-01-02T10:30:00Z,29.5325,-93.8116,2.0,326.4655521,29.66824902,-99999.0,'11111222,11111222,99999999' 
TABS,ioos:station:TABS:A:1,1997-01-02T11:00:00Z,29.5325,-93.8116,2.0,307.1667143,23.19031048,-99999.0,'11111222,11111222,99999999' 
TABS,ioos:station:TABS:A:1,1997-01-02T11:30:00Z,29.5325,-93.8116,2.0,310.7941412,28.72934736,-99999.0,'11111222,11111222,99999999' 
TABS,ioos:station:TABS:A:1,1997-01-02T12:00:00Z,29.5325,-93.8116,2.0,307.5051299,32.30798353,-99999.0,'11111222,11111222,99999999' 
TABS,ioos:station:TABS:A:1,1997-01-02T12:30:00Z,29.5325,-93.8116,2.0,298.7851886,30.94356799,-99999.0,'11111222,11111222,99999999' 
TABS,ioos:station:TABS:A:1,1997-01-02T13:00:00Z,29.5325,-93.8116,2.0,296.0806312,31.18532026,-99999.0,'11111222,11111222,99999999' 
TABS,ioos:station:TABS:A:1,1997-01-02T13:30:00Z,29.5325,-93.8116,2.0,294.7059671,32.80250143,-99999.0,'11111222,11111222,99999999' 
TABS,ioos:station:TABS:A:1,1997-01-02T14:00:00Z,29.5325,-93.8116,2.0,289.5190001,34.77862562,-99999.0,'11111222,11111222,99999999' 
TABS,ioos:station:TABS:A:1,1997-01-02T14:30:00Z,29.5325,-93.8116,2.0,291.4638648,37.46840002,-99999.0,'11111222,11111222,99999999' 
TABS,ioos:station:TABS:A:1,1997-01-02T15:00:00Z,29.5325,-93.8116,2.0,290.1719135,37.14852622,-99999.0,'11111222,11111222,99999999' 
TABS,ioos:station:TABS:A:1,1997-01-02T15:30:00Z,29.5325,-93.8116,2.0,296.56541,36.64915415,-99999.0,'11111222,11111222,99999999' 
TABS,ioos:station:TABS:A:1,1997-01-02T16:00:00Z,29.5325,-93.8116,2.0,297.9882717,37.46121728,-99999.0,'11111222,11111222,99999999' 
TABS,ioos:station:TABS:A:1,1997-01-02T16:30:00Z,29.5325,-93.8116,2.0,296.56541,36.64915415,-99999.0,'11111222,11111222,99999999' 
TABS,ioos:station:TABS:A:1,1997-01-02T17:00:00Z,29.5325,-93.8116,2.0,296.5721562,37.98185093,-99999.0,'11111222,11111222,99999999' 
TABS,ioos:station:TABS:A:1,1997-01-02T17:30:00Z,29.5325,-93.8116,2.0,297.1969347,36.51720827,-99999.0,'11111222,11111222,99999999' 
TABS,ioos:station:TABS:A:1,1997-01-02T18:00:00Z,29.5325,-93.8116,2.0,299.2787135,36.56044994,-99999.0,'11111222,11111222,99999999' 
TABS,ioos:station:TABS:A:1,1997-01-02T18:30:00Z,29.5325,-93.8116,2.0,303.5588938,35.04050371,-99999.0,'11111222,11111222,99999999' 
TABS,ioos:station:TABS:A:1,1997-01-02T19:00:00Z,29.5325,-93.8116,2.0,300.6418049,35.67055508,-99999.0,'11111222,11111222,99999999' 
TABS,ioos:station:TABS:A:1,1997-01-02T19:30:00Z,29.5325,-93.8116,2.0,300.1083285,34.44761821,-99999.0,'11111222,11111222,99999999' 
TABS,ioos:station:TABS:A:1,1997-01-02T20:00:00Z,29.5325,-93.8116,2.0,297.6261874,35.99344663,-99999.0,'11111222,11111222,99999999' 
TABS,ioos:station:TABS:A:1,1997-01-02T20:30:00Z,29.5325,-93.8116,2.0,293.6614351,34.16179445,-99999.0,'11111222,11111222,99999999' 
TABS,ioos:station:TABS:A:1,1997-01-02T21:00:00Z,29.5325,-93.8116,2.0,293.3784882,36.03854048,-99999.0,'11111222,11111222,99999999' 
TABS,ioos:station:TABS:A:1,1997-01-02T21:30:00Z,29.5325,-93.8116,2.0,291.2594683,34.52973791,-99999.0,'11111222,11111222,99999999' 
TABS,ioos:station:TABS:A:1,1997-01-02T22:00:00Z,29.5325,-93.8116,2.0,288.9370665,32.13946017,-99999.0,'11111222,11111222,99999999' 
TABS,ioos:station:TABS:A:1,1997-01-02T22:30:00Z,29.5325,-93.8116,2.0,291.7948002,30.4893178,-99999.0,'11111222,11111222,99999999' 
TABS,ioos:station:TABS:A:1,1997-01-02T23:00:00Z,29.5325,-93.8116,2.0,291.7002155,31.42712841,-99999.0,'11111222,11111222,99999999' 
TABS,ioos:station:TABS:A:1,1997-01-02T23:30:00Z,29.5325,-93.8116,2.0,291.8991988,32.76413283,-99999.0,'11111222,11111222,99999999' 
TABS,ioos:station:TABS:A:1,1997-01-03T00:00:00Z,29.5325,-93.8116,2.0,293.0118045,36.58085428,-99999.0,'11111222,11111222,99999999' 
TABS,ioos:station:TABS:A:1,1997-01-03T00:30:00Z,29.5325,-93.8116,2.0,293.9174012,34.5573176,-99999.0,'11111222,11111222,99999999' 
TABS,ioos:station:TABS:A:1,1997-01-03T01:00:00Z,29.5325,-93.8116,2.0,291.6201774,33.98056062,-99999.0,'11111222,11111222,99999999' 
TABS,ioos:station:TABS:A:1,1997-01-03T01:30:00Z,29.5325,-93.8116,2.0,288.9370665,32.13946017,-99999.0,'11111222,11111222,99999999' 
TABS,ioos:station:TABS:A:1,1997-01-03T02:00:00Z,29.5325,-93.8116,2.0,288.7611751,33.36256885,-99999.0,'11111222,11111222,99999999' 
TABS,ioos:station:TABS:A:1,1997-01-03T02:30:00Z,29.5325,-93.8116,2.0,288.8844773,35.90244142,-99999.0,'11111222,11111222,99999999' 
TABS,ioos:station:TABS:A:1,1997-01-03T03:00:00Z,29.5325,-93.8116,2.0,288.5832453,35.52198333,-99999.0,'11111222,11111222,99999999' 
TABS,ioos:station:TABS:A:1,1997-01-03T03:30:00Z,29.5325,-93.8116,2.0,284.0366316,36.86056429,-99999.0,'11111222,11111222,99999999' 
TABS,ioos:station:TABS:A:1,1997-01-03T04:00:00Z,29.5325,-93.8116,2.0,280.0676337,37.52780436,-99999.0,'11111222,11111222,99999999' 
TABS,ioos:station:TABS:A:1,1997-01-03T04:30:00Z,29.5325,-93.8116,2.0,279.9881945,37.8232217,-99999.0,'11111222,11111222,99999999' 
TABS,ioos:station:TABS:A:1,1997-01-03T05:00:00Z,29.5325,-93.8116,2.0,281.2284559,39.80181026,-99999.0,'11111222,11111222,99999999' 
TABS,ioos:station:TABS:A:1,1997-01-03T05:30:00Z,29.5325,-93.8116,2.0,281.3103269,37.98769538,-99999.0,'11111222,11111222,99999999' 
TABS,ioos:station:TABS:A:1,1997-01-03T06:00:00Z,29.5325,-93.8116,2.0,274.9272357,34.69820312,-99999.0,'11111222,11111222,99999999' 
TABS,ioos:station:TABS:A:1,1997-01-03T06:30:00Z,29.5325,-93.8116,2.0,273.9731387,34.3525443,-99999.0,'11111222,11111222,99999999' 
TABS,ioos:station:TABS:A:1,1997-01-03T07:00:00Z,29.5325,-93.8116,2.0,270.5109121,33.67133647,-99999.0,'11111222,11111222,99999999' 
TABS,ioos:station:TABS:A:1,1997-01-03T07:30:00Z,29.5325,-93.8116,2.0,269.4605955,31.89141107,-99999.0,'11111222,11111222,99999999' 
TABS,ioos:station:TABS:A:1,1997-01-03T08:00:00Z,29.5325,-93.8116,2.0,272.1182197,32.20199528,-99999.0,'11111222,11111222,99999999' 
TABS,ioos:station:TABS:A:1,1997-01-03T08:30:00Z,29.5325,-93.8116,2.0,265.7314291,31.97868822,-99999.0,'11111222,11111222,99999999' 
TABS,ioos:station:TABS:A:1,1997-01-03T09:00:00Z,29.5325,-93.8116,2.0,264.6106191,31.73024582,-99999.0,'11111222,11111222,99999999' 
TABS,ioos:station:TABS:A:1,1997-01-03T09:30:00Z,29.5325,-93.8116,2.0,263.5340202,31.79220816,-99999.0,'11111222,11111222,99999999' 
TABS,ioos:station:TABS:A:1,1997-01-03T10:00:00Z,29.5325,-93.8116,2.0,263.5904958,29.38364171,-99999.0,'11111222,11111222,99999999' 
TABS,ioos:station:TABS:A:1,1997-01-03T10:30:00Z,29.5325,-93.8116,2.0,263.3907649,28.49937719,-99999.0,'11111222,11111222,99999999' 
TABS,ioos:station:TABS:A:1,1997-01-03T11:00:00Z,29.5325,-93.8116,2.0,265.1428538,28.11093204,-99999.0,'11111222,11111222,99999999' 
TABS,ioos:station:TABS:A:1,1997-01-03T11:30:00Z,29.5325,-93.8116,2.0,264.0531427,28.76477881,-99999.0,'11111222,11111222,99999999' 
TABS,ioos:station:TABS:A:1,1997-01-03T12:00:00Z,29.5325,-93.8116,2.0,265.8646798,28.98544807,-99999.0,'11111222,11111222,99999999' 
TABS,ioos:station:TABS:A:1,1997-01-03T12:30:00Z,29.5325,-93.8116,2.0,265.293359,29.00780067,-99999.0,'11111222,11111222,99999999' 
TABS,ioos:station:TABS:A:1,1997-01-03T13:00:00Z,29.5325,-93.8116,2.0,263.0802478,29.71643316,-99999.0,'11111222,11111222,99999999' 
TABS,ioos:station:TABS:A:1,1997-01-03T13:30:00Z,29.5325,-93.8116,2.0,261.2962018,29.54015741,-99999.0,'11111222,11111222,99999999' 
TABS,ioos:station:TABS:A:1,1997-01-03T14:00:00Z,29.5325,-93.8116,2.0,263.2831969,30.61007024,-99999.0,'11111222,11111222,99999999' 
TABS,ioos:station:TABS:A:1,1997-01-03T14:30:00Z,29.5325,-93.8116,2.0,265.0569767,31.10566669,-99999.0,'11111222,11111222,99999999' 
TABS,ioos:station:TABS:A:1,1997-01-03T15:00:00Z,29.5325,-93.8116,2.0,268.9010436,31.29575211,-99999.0,'11111222,11111222,99999999' 
TABS,ioos:station:TABS:A:1,1997-01-03T15:30:00Z,29.5325,-93.8116,2.0,270.0004209,30.69,-99999.0,'11111222,11111222,99999999' 
TABS,ioos:station:TABS:A:1,1997-01-03T16:00:00Z,29.5325,-93.8116,2.0,265.7314291,31.97868822,-99999.0,'11111222,11111222,99999999' 
TABS,ioos:station:TABS:A:1,1997-01-03T16:30:00Z,29.5325,-93.8116,2.0,268.8904118,30.99580778,-99999.0,'11111222,11111222,99999999' 
TABS,ioos:station:TABS:A:1,1997-01-03T17:00:00Z,29.5325,-93.8116,2.0,261.9456867,31.90468618,-99999.0,'11111222,11111222,99999999' 
TABS,ioos:station:TABS:A:1,1997-01-03T17:30:00Z,29.5325,-93.8116,2.0,253.6121179,31.6872782,-99999.0,'11111222,11111222,99999999' 
TABS,ioos:station:TABS:A:1,1997-01-03T18:00:00Z,29.5325,-93.8116,2.0,248.293447,34.63594231,-99999.0,'11111222,11111222,99999999' 
TABS,ioos:station:TABS:A:1,1997-01-03T18:30:00Z,29.5325,-93.8116,2.0,245.0400846,33.20075451,-99999.0,'11111222,11111222,99999999' 
TABS,ioos:station:TABS:A:1,1997-01-03T19:00:00Z,29.5325,-93.8116,2.0,242.2811423,33.32416541,-99999.0,'11111222,11111222,99999999' 
TABS,ioos:station:TABS:A:1,1997-01-03T19:30:00Z,29.5325,-93.8116,2.0,233.8109255,30.28213995,-99999.0,'11111222,11111222,99999999' 
TABS,ioos:station:TABS:A:1,1997-01-03T20:00:00Z,29.5325,-93.8116,2.0,228.6823932,36.10872471,-99999.0,'11111222,11111222,99999999' 
TABS,ioos:station:TABS:A:1,1997-01-03T20:30:00Z,29.5325,-93.8116,2.0,229.1777643,34.64838957,-99999.0,'11111222,11111222,99999999' 
TABS,ioos:station:TABS:A:1,1997-01-03T21:00:00Z,29.5325,-93.8116,2.0,226.8005368,33.52634934,-99999.0,'11111222,11111222,99999999' 
TABS,ioos:station:TABS:A:1,1997-01-03T21:30:00Z,29.5325,-93.8116,2.0,227.3554969,30.79224091,-99999.0,'11111222,11111222,99999999' 
TABS,ioos:station:TABS:A:1,1997-01-03T22:00:00Z,29.5325,-93.8116,2.0,230.1123589,26.02608307,-99999.0,'11111222,11111222,99999999' 
TABS,ioos:station:TABS:A:1,1997-01-03T22:30:00Z,29.5325,-93.8116,2.0,223.5457922,25.08208125,-99999.0,'11111222,11111222,99999999' 
TABS,ioos:station:TABS:A:1,1997-01-03T23:00:00Z,29.5325,-93.8116,2.0,224.4686756,22.12632143,-99999.0,'11111222,11111222,99999999' 
TABS,ioos:station:TABS:A:1,1997-01-03T23:30:00Z,29.5325,-93.8116,2.0,227.8901647,20.89330275,-99999.0,'11111222,11111222,99999999' 
TABS,ioos:station:TABS:A:1,1997-01-04T00:00:00Z,29.5325,-93.8116,2.0,229.7165124,17.97188081,-99999.0,'11111222,11111222,99999999' 
TABS,ioos:station:TABS:A:1,1997-01-04T00:30:00Z,29.5325,-93.8116,2.0,237.9973566,19.68098067,-99999.0,'11111222,11111222,99999999' 
TABS,ioos:station:TABS:A:1,1997-01-04T01:00:00Z,29.5325,-93.8116,2.0,250.9992742,19.22758435,-99999.0,'11111222,11111222,99999999' 
TABS,ioos:station:TABS:A:1,1997-01-04T01:30:00Z,29.5325,-93.8116,2.0,256.937847,21.10607732,-99999.0,'11111222,11111222,99999999' 
TABS,ioos:station:TABS:A:1,1997-01-04T02:00:00Z,29.5325,-93.8116,2.0,261.063649,21.11629702,-99999.0,'11111222,11111222,99999999' 
TABS,ioos:station:TABS:A:1,1997-01-04T02:30:00Z,29.5325,-93.8116,2.0,269.198667,21.46209682,-99999.0,'11111222,11111222,99999999' 
TABS,ioos:station:TABS:A:1,1997-01-04T03:00:00Z,29.5325,-93.8116,2.0,266.9104299,22.08208776,-99999.0,'11111222,11111222,99999999' 
TABS,ioos:station:TABS:A:1,1997-01-04T03:30:00Z,29.5325,-93.8116,2.0,266.2358844,22.69895592,-99999.0,'11111222,11111222,99999999' 
TABS,ioos:station:TABS:A:1,1997-01-04T04:00:00Z,29.5325,-93.8116,2.0,267.1056187,23.5700594,-99999.0,'11111222,11111222,99999999' 
TABS,ioos:station:TABS:A:1,1997-01-04T04:30:00Z,29.5325,-93.8116,2.0,266.0278305,21.51166428,-99999.0,'11111222,11111222,99999999' 
TABS,ioos:station:TABS:A:1,1997-01-04T05:00:00Z,29.5325,-93.8116,2.0,265.7325475,20.02550873,-99999.0,'11111222,11111222,99999999' 
TABS,ioos:station:TABS:A:1,1997-01-04T05:30:00Z,29.5325,-93.8116,2.0,265.8469013,16.43314334,-99999.0,'11111222,11111222,99999999' 
TABS,ioos:station:TABS:A:1,1997-01-04T06:00:00Z,29.5325,-93.8116,2.0,255.980765,15.97582236,-99999.0,'11111222,11111222,99999999' 
TABS,ioos:station:TABS:A:1,1997-01-04T06:30:00Z,29.5325,-93.8116,2.0,260.5224375,12.69324624,-99999.0,'11111222,11111222,99999999' 
TABS,ioos:station:TABS:A:1,1997-01-04T07:00:00Z,29.5325,-93.8116,2.0,244.7408747,17.45928406,-99999.0,'11111222,11111222,99999999' 
TABS,ioos:station:TABS:A:1,1997-01-04T07:30:00Z,29.5325,-93.8116,2.0,247.7934065,15.76964172,-99999.0,'11111222,11111222,99999999' 
TABS,ioos:station:TABS:A:1,1997-01-04T08:00:00Z,29.5325,-93.8116,2.0,235.7892162,18.01740547,-99999.0,'11111222,11111222,99999999' 
TABS,ioos:station:TABS:A:1,1997-01-04T08:30:00Z,29.5325,-93.8116,2.0,227.4351767,14.97590732,-99999.0,'11111222,11111222,99999999' 
TABS,ioos:station:TABS:A:1,1997-01-04T09:00:00Z,29.5325,-93.8116,2.0,236.2826973,11.81788898,-99999.0,'11111222,11111222,99999999' 
TABS,ioos:station:TABS:A:1,1997-01-04T09:30:00Z,29.5325,-93.8116,2.0,226.1303726,10.75011628,-99999.0,'11111222,11111222,99999999' 
TABS,ioos:station:TABS:A:1,1997-01-04T10:00:00Z,29.5325,-93.8116,2.0,228.9740257,9.079873347,-99999.0,'11133222,11111222,99999999' 
TABS,ioos:station:TABS:A:1,1997-01-04T10:30:00Z,29.5325,-93.8116,2.0,208.753356,10.5395683,-99999.0,'11111222,11111222,99999999' 
TABS,ioos:station:TABS:A:1,1997-01-04T11:00:00Z,29.5325,-93.8116,2.0,199.7409799,12.34557816,-99999.0,'11111222,11111222,99999999' 
TABS,ioos:station:TABS:A:1,1997-01-04T11:30:00Z,29.5325,-93.8116,2.0,207.8840002,11.46065007,-99999.0,'11111222,11111222,99999999' 
TABS,ioos:station:TABS:A:1,1997-01-04T12:00:00Z,29.5325,-93.8116,2.0,210.6484348,9.357104253,-99999.0,'11133222,11111222,99999999' 
TABS,ioos:station:TABS:A:1,1997-01-04T12:30:00Z,29.5325,-93.8116,2.0,214.2364422,9.011514856,-99999.0,'11133222,11111222,99999999' 
TABS,ioos:station:TABS:A:1,1997-01-04T13:00:00Z,29.5325,-93.8116,2.0,202.7251912,10.01770932,-99999.0,'11111222,11111222,99999999' 
TABS,ioos:station:TABS:A:1,1997-01-04T13:30:00Z,29.5325,-93.8116,2.0,206.535199,8.662528499,-99999.0,'11133222,11111222,99999999' 
TABS,ioos:station:TABS:A:1,1997-01-04T14:00:00Z,29.5325,-93.8116,2.0,198.4133402,8.484391552,-99999.0,'11133222,11111222,99999999' 
TABS,ioos:station:TABS:A:1,1997-01-04T14:30:00Z,29.5325,-93.8116,2.0,213.7390861,6.445618667,-99999.0,'11133222,11111222,99999999' 
TABS,ioos:station:TABS:A:1,1997-01-04T15:00:00Z,29.5325,-93.8116,2.0,189.9561631,5.147523676,-99999.0,'11133222,11111222,99999999' 
TABS,ioos:station:TABS:A:1,1997-01-04T15:30:00Z,29.5325,-93.8116,2.0,205.6754334,8.931931482,-99999.0,'11133222,11111222,99999999' 
TABS,ioos:station:TABS:A:1,1997-01-04T16:00:00Z,29.5325,-93.8116,2.0,207.8110581,12.13130249,-99999.0,'11111222,11111222,99999999' 
TABS,ioos:station:TABS:A:1,1997-01-04T16:30:00Z,29.5325,-93.8116,2.0,212.9523144,13.14470996,-99999.0,'11111222,11111222,99999999' 
TABS,ioos:station:TABS:A:1,1997-01-04T17:00:00Z,29.5325,-93.8116,2.0,210.9760385,15.64067134,-99999.0,'11111222,11111222,99999999' 
TABS,ioos:station:TABS:A:1,1997-01-04T17:30:00Z,29.5325,-93.8116,2.0,216.6138579,12.99412944,-99999.0,'11111222,11111222,99999999' 
TABS,ioos:station:TABS:A:1,1997-01-04T18:00:00Z,29.5325,-93.8116,2.0,204.2114872,13.06965952,-99999.0,'11111222,11111222,99999999' 